Location: Caltech
(34.1382°N, 118.1253°W)
Time: 22:53:34
(UTC-07:00)

Aureole 2 Rocket - Visible Passes

Search period start: 25 October 2014 00:00
Search period end: 03 November 2014 23:00
Orbit: 349 x 744 km, 73.9° (Epoch: 25 October)

Date Brightness Start Highest point End Pass type
(mag) Time Alt. Az. Time Alt. Az. Time Alt. Az.
28 Oct 5.8 05:19:59 10° NE 05:21:23 12° ENE 05:22:51 10° E visible
28 Oct 4.4 19:12:35 10° SSE 19:13:02 12° SSE 19:13:02 12° SSE visible
29 Oct 5.6 05:13:36 10° NNE 05:15:41 14° ENE 05:17:52 10° ESE visible
29 Oct 3.4 19:06:33 10° SSE 19:08:30 23° SE 19:08:30 23° SE visible
30 Oct 5.5 05:07:23 10° NNE 05:09:55 17° ENE 05:12:37 10° ESE visible
30 Oct 2.7 19:00:32 10° S 19:03:15 31° ESE 19:03:52 28° ENE visible
31 Oct 5.2 05:01:38 12° NNE 05:04:05 21° ENE 05:07:12 10° ESE visible
31 Oct 4.1 06:38:20 10° NW 06:41:13 21° WSW 06:44:22 10° SSW visible
31 Oct 2.4 18:54:31 10° S 18:57:20 40° ESE 18:59:06 18° NE visible
01 Nov 4.9 04:56:59 21° NE 04:58:12 25° ENE 05:01:39 10° SE visible
01 Nov 4.3 06:32:41 10° WNW 06:35:19 18° WSW 06:38:10 10° SW visible
01 Nov 2.0 18:48:29 10° S 18:51:22 52° ESE 18:54:08 10° NNE visible
02 Nov 4.6 03:52:22 30° ENE 03:52:22 30° ENE 03:56:00 10° SE visible
02 Nov 4.5 05:28:04 14° W 05:29:20 15° W 05:31:49 10° SW visible
02 Nov 1.8 17:42:26 10° S 17:45:21 69° ESE 17:48:10 10° NNE visible
03 Nov 4.8 03:47:46 27° ESE 03:47:46 27° ESE 03:50:14 10° SE visible
03 Nov 4.7 05:23:28 13° WSW 05:23:28 13° WSW 05:25:18 10° SW visible
03 Nov 1.9 17:36:22 10° SSW 17:39:16 89° W 17:42:06 10° NNE visible
